| time (UTC) | temp F | wind direction | speed MPH | gust MPH | rain 1hr in | rain 24hr in | rain mn in | humidity % | barometer mb |
| 20260903180013 | 64 | 355 | 0.0 | 1.0 | 0.01 | 0.12 | 0.12 | 79 | 1012.5 |
| 20260903174511 | 64 | 355 | 0.0 | 1.0 | 0.02 | 0.12 | 0.12 | 79 | 1012.4 |
| 20260903173008 | 63 | 355 | 0.0 | 1.0 | 0.03 | 0.12 | 0.12 | 80 | 1012.4 |
| 20260903171507 | 63 | 355 | 0.0 | 3.0 | 0.04 | 0.12 | 0.12 | 81 | 1012.5 |
| 20260903170007 | 63 | 355 | 0.0 | 1.0 | 0.04 | 0.11 | 0.11 | 80 | 1012.5 |
| 20260903164505 | 62 | 355 | 0.0 | 1.0 | 0.03 | 0.10 | 0.10 | 81 | 1012.3 |
| 20260903163003 | 62 | 355 | 0.0 | 1.0 | 0.03 | 0.09 | 0.09 | 81 | 1012.3 |
| 20260903161502 | 62 | 355 | 0.0 | 1.0 | 0.04 | 0.08 | 0.08 | 82 | 1012.5 |
| 20260903160002 | 62 | 355 | 0.0 | 1.0 | 0.04 | 0.07 | 0.07 | 82 | 1012.6 |
| 20260903154610 | 62 | 355 | 0.0 | 1.0 | 0.04 | 0.08 | 0.07 | 82 | 1012.7 |
| 20260903153100 | 62 | 355 | 0.0 | 0.0 | 0.04 | 0.07 | 0.06 | 82 | 1012.8 |
| 20260903151557 | 62 | 355 | 0.0 | 1.0 | 0.02 | 0.05 | 0.04 | 82 | 1012.8 |
| 20260903150057 | 62 | 355 | 0.0 | 0.0 | 0.01 | 0.04 | 0.03 | 83 | 1012.7 |
| 20260903144604 | 61 | 355 | 0.0 | 2.0 | 0.01 | 0.08 | 0.03 | 83 | 1012.7 |
| 20260903143106 | 61 | 355 | 0.0 | 2.0 | 0.01 | 0.07 | 0.02 | 83 | 1012.5 |
| 20260903141602 | 61 | 348 | 0.0 | 0.0 | 0.01 | 0.07 | 0.02 | 83 | 1012.5 |
| 20260903140051 | 60 | 348 | 0.0 | 0.0 | 0.01 | 0.07 | 0.02 | 84 | 1012.4 |
| 20260903134557 | 60 | 348 | 0.0 | 0.0 | 0.01 | 0.12 | 0.02 | 84 | 1012.4 |
| 20260903133049 | 60 | 348 | 0.0 | 0.0 | 0.00 | 0.11 | 0.01 | 84 | 1012.5 |
| 20260903131548 | 60 | 348 | 0.0 | 0.0 | 0.00 | 0.11 | 0.01 | 84 | 1012.6 |
| 20260903130046 | 60 | 348 | 0.0 | 0.0 | 0.01 | 0.11 | 0.01 | 85 | 1012.6 |
| 20260903124546 | 60 | 348 | 0.0 | 0.0 | 0.01 | 0.19 | 0.01 | 85 | 1012.8 |
| 20260903123043 | 60 | 348 | 0.0 | 0.0 | 0.01 | 0.19 | 0.01 | 85 | 1012.9 |
| 20260903121541 | 60 | 348 | 0.0 | 0.0 | 0.01 | 0.19 | 0.01 | 85 | 1013.1 |
| 20260903120041 | 60 | 348 | 0.0 | 0.0 | 0.00 | 0.18 | 0.00 | 85 | 1013.1 |
| 20260903114544 | 60 | 348 | 0.0 | 0.0 | 0.00 | 0.20 | 0.00 | 85 | 1013.2 |
| 20260903113036 | 60 | 348 | 0.0 | 0.0 | 0.00 | 0.20 | 0.00 | 85 | 1013.2 |
| 20260903111540 | 60 | 348 | 0.0 | 0.0 | 0.00 | 0.20 | 0.00 | 85 | 1013.4 |
| 20260903110037 | 59 | 348 | 0.0 | 0.0 | 0.00 | 0.20 | 0.00 | 86 | 1013.6 |
| 20260903104535 | 59 | 348 | 0.0 | 0.0 | 0.00 | 0.20 | 0.00 | 85 | 1013.7 |
| 20260903103035 | 59 | 348 | 0.0 | 0.0 | 0.00 | 0.20 | 0.00 | 86 | 1013.8 |
| 20260903101537 | 59 | 348 | 0.0 | 0.0 | 0.00 | 0.20 | 0.00 | 86 | 1013.8 |
| 20260903100028 | 59 | 348 | 0.0 | 0.0 | 0.00 | 0.20 | 0.00 | 85 | 1013.9 |
| 20260903094525 | 59 | 348 | 0.0 | 0.0 | 0.00 | 0.20 | 0.00 | 85 | 1014.0 |
| 20260903093022 | 59 | 348 | 0.0 | 0.0 | 0.00 | 0.20 | 0.00 | 85 | 1014.2 |
| 20260903091521 | 58 | 348 | 0.0 | 0.0 | 0.00 | 0.20 | 0.00 | 85 | 1014.4 |
| 20260903090020 | 58 | 348 | 0.0 | 0.0 | 0.00 | 0.20 | 0.00 | 85 | 1014.5 |
| 20260903084518 | 58 | 348 | 0.0 | 0.0 | 0.00 | 0.20 | 0.00 | 86 | 1014.6 |
| 20260903083032 | 58 | 348 | 0.0 | 0.0 | 0.00 | 0.20 | 0.00 | 85 | 1014.7 |
| 20260903081527 | 58 | 348 | 0.0 | 0.0 | 0.00 | 0.20 | 0.00 | 85 | 1014.7 |
| 20260903080014 | 57 | 348 | 0.0 | 0.0 | 0.00 | 0.20 | 0.00 | 85 | 1014.8 |
| 20260903074512 | 57 | 348 | 0.0 | 0.0 | 0.00 | 0.20 | 0.00 | 85 | 1014.8 |
| 20260903073014 | 57 | 348 | 0.0 | 0.0 | 0.00 | 0.20 | 0.00 | 86 | 1014.9 |
| 20260903071509 | 57 | 348 | 0.0 | 0.0 | 0.00 | 0.20 | 0.00 | 86 | 1014.9 |
| 20260903070007 | 57 | 348 | 0.0 | 0.0 | 0.00 | 0.20 | 0.00 | 86 | 1015.0 |
| 20260903064508 | 56 | 348 | 0.0 | 0.0 | 0.00 | 0.20 | 0.20 | 85 | 1015.1 |
| 20260903063005 | 56 | 348 | 0.0 | 0.0 | 0.00 | 0.20 | 0.20 | 85 | 1015.1 |
| 20260903061505 | 57 | 348 | 0.0 | 0.0 | 0.00 | 0.20 | 0.20 | 85 | 1015.1 |
| 20260903060005 | 57 | 348 | 0.0 | 0.0 | 0.00 | 0.20 | 0.20 | 85 | 1015.1 |
| 20260903054505 | 57 | 348 | 0.0 | 0.0 | 0.00 | 0.20 | 0.20 | 84 | 1015.2 |
| 20260903053004 | 57 | 348 | 0.0 | 0.0 | 0.00 | 0.20 | 0.20 | 84 | 1015.3 |
| 20260903051504 | 58 | 348 | 0.0 | 0.0 | 0.00 | 0.20 | 0.20 | 83 | 1015.4 |
| 20260903050004 | 59 | 348 | 0.0 | 0.0 | 0.00 | 0.20 | 0.20 | 82 | 1015.5 |
| 20260903044503 | 59 | 348 | 0.0 | 0.0 | 0.00 | 0.20 | 0.20 | 81 | 1015.4 |
| 20260903043002 | 60 | 348 | 0.0 | 0.0 | 0.00 | 0.20 | 0.20 | 81 | 1015.2 |
| 20260903041502 | 61 | 348 | 0.0 | 0.0 | 0.00 | 0.20 | 0.20 | 81 | 1015.2 |
| 20260903040002 | 61 | 348 | 0.0 | 0.0 | 0.00 | 0.20 | 0.20 | 79 | 1015.1 |
| 20260903034502 | 62 | 348 | 0.0 | 2.0 | 0.00 | 0.20 | 0.20 | 79 | 1015.0 |
| 20260903033101 | 62 | 360 | 0.0 | 1.0 | 0.00 | 0.20 | 0.20 | 78 | 1014.7 |
| 20260903031600 | 63 | 360 | 0.0 | 1.0 | 0.00 | 0.20 | 0.20 | 77 | 1014.5 |
| 20260903030059 | 64 | 348 | 0.0 | 3.0 | 0.00 | 0.20 | 0.20 | 76 | 1014.4 |
| 20260903024558 | 65 | 360 | 0.0 | 1.0 | 0.00 | 0.20 | 0.20 | 74 | 1014.4 |
| 20260903023058 | 66 | 355 | 0.0 | 3.0 | 0.00 | 0.20 | 0.20 | 73 | 1014.4 |
| 20260903021557 | 67 | 346 | 0.0 | 2.0 | 0.00 | 0.20 | 0.20 | 71 | 1014.3 |
| 20260903020056 | 68 | 344 | 0.0 | 0.0 | 0.00 | 0.20 | 0.20 | 70 | 1014.4 |
| 20260903014557 | 68 | 344 | 0.0 | 1.0 | 0.00 | 0.20 | 0.20 | 68 | 1014.4 |
| 20260903013056 | 69 | 343 | 0.0 | 1.0 | 0.00 | 0.20 | 0.20 | 66 | 1014.4 |
| 20260903011606 | 70 | 343 | 0.0 | 1.0 | 0.00 | 0.20 | 0.20 | 65 | 1014.3 |
| 20260903010054 | 70 | 343 | 0.0 | 3.0 | 0.00 | 0.20 | 0.20 | 64 | 1014.3 |
| 20260903004554 | 71 | 35 | 1.0 | 3.0 | 0.00 | 0.20 | 0.20 | 62 | 1014.2 |
| 20260903003154 | 71 | 38 | 0.0 | 2.0 | 0.00 | 0.20 | 0.20 | 61 | 1014.2 |
| 20260903001552 | 72 | 329 | 0.0 | 3.0 | 0.00 | 0.20 | 0.20 | 58 | 1014.2 |
| 20260903000052 | 72 | 328 | 0.0 | 5.0 | 0.00 | 0.20 | 0.20 | 61 | 1014.2 |
| 20260902234551 | 72 | 10 | 0.0 | 5.0 | 0.00 | 0.20 | 0.20 | 60 | 1014.3 |
| 20260902233056 | 72 | 36 | 0.0 | 6.0 | 0.00 | 0.20 | 0.20 | 59 | 1014.4 |
| 20260902231558 | 72 | 24 | 0.0 | 4.0 | 0.00 | 0.20 | 0.20 | 61 | 1014.4 |
| 20260902230049 | 72 | 360 | 0.0 | 3.0 | 0.00 | 0.20 | 0.20 | 61 | 1014.5 |
| 20260902224555 | 71 | 309 | 0.0 | 2.0 | 0.00 | 0.20 | 0.20 | 61 | 1014.9 |
| 20260902223048 | 72 | 309 | 0.0 | 2.0 | 0.00 | 0.20 | 0.20 | 60 | 1014.8 |
| 20260902221550 | 72 | 311 | 0.0 | 5.0 | 0.00 | 0.20 | 0.20 | 61 | 1014.8 |
| 20260902220045 | 72 | 5 | 1.0 | 4.0 | 0.00 | 0.20 | 0.20 | 62 | 1015.0 |
| 20260902214543 | 72 | 60 | 0.0 | 1.0 | 0.00 | 0.20 | 0.20 | 67 | 1015.1 |
| 20260902213048 | 70 | 64 | 0.0 | 2.0 | 0.00 | 0.20 | 0.20 | 67 | 1015.3 |
| 20260902211546 | 70 | 9 | 0.0 | 4.0 | 0.00 | 0.20 | 0.20 | 67 | 1015.3 |
| 20260902210036 | 70 | 321 | 0.0 | 3.0 | 0.00 | 0.20 | 0.20 | 69 | 1015.5 |
| 20260902204534 | 69 | 321 | 0.0 | 2.0 | 0.00 | 0.20 | 0.20 | 70 | 1015.6 |
| 20260902203031 | 69 | 321 | 0.0 | 3.0 | 0.00 | 0.20 | 0.20 | 71 | 1015.6 |
| 20260902201536 | 68 | 338 | 0.0 | 4.0 | 0.00 | 0.20 | 0.20 | 75 | 1015.6 |
| 20260902200031 | 68 | 21 | 0.0 | 3.0 | 0.00 | 0.20 | 0.20 | 77 | 1015.8 |
| 20260902194524 | 67 | 21 | 0.0 | 1.0 | 0.00 | 0.20 | 0.20 | 83 | 1015.9 |
| 20260902193021 | 66 | 59 | 0.0 | 1.0 | 0.00 | 0.20 | 0.20 | 85 | 1016.0 |
| 20260902191528 | 65 | 360 | 0.0 | 3.0 | 0.00 | 0.20 | 0.20 | 85 | 1016.2 |
| 20260902190015 | 64 | 360 | 0.0 | 1.0 | 0.00 | 0.20 | 0.20 | 83 | 1016.3 |
| 20260902184513 | 63 | 360 | 0.0 | 1.0 | 0.00 | 0.20 | 0.20 | 84 | 1016.3 |
| 20260902183017 | 63 | 360 | 0.0 | 0.0 | 0.00 | 0.20 | 0.20 | 83 | 1016.4 |
| 20260902181511 | 63 | 360 | 0.0 | 0.0 | 0.00 | 0.20 | 0.20 | 83 | 1016.3 |